Tracking 21076 objects as of 7-Aug-2020
HD Live streaming from Space Station
objects crossing your sky now

METEOR 2-5 DEB

Track METEOR 2-5 DEB now!
10-day predictions


NORAD ID: 28596
Int'l Code: 1979-095G
Perigee: 708.6 km
Apogee: 725.2 km
Inclination: 81.2 °
Period: 99.0 minutes
Semi major axis: 7087 km
RCS: 0.0109 m2 (small)
Launch date: October 31, 1979
Source: Commonwealth of Independent States (former USSR) (CIS)
Launch site: PLESETSK MISSILE AND SPACE COMPLEX (PKMTR)

Note: This is SATELLITE DEBRIS
aabbcc
Your satellite tracking list
Your tracking list is empty




NASA's NSSDC Master Catalog

Two Line Element Set (TLE):
1 28596U 79095G   20218.42427740 +.00002363 +00000-0 +54669-3 0  9990
2 28596 081.1940 268.1568 0011743 072.9573 287.2908 14.54882317307043
Source of the keplerian elements: AFSPC